Location: Emblem
(62.4273°N, 6.4710°E)
Time: 14:59:07
(UTC+02:00)

Altair - Pass Details

Date: 09 February 2023
Orbit: 1501 x 1682 km, 47.2° (Epoch: 31 March)

Event Time Altitude Azimuth Distance (km) Brightness Sun altitude
Rises 19:19:09 0° 224° (SW) 4,741 10.8 -16.5°
Reaches altitude 10° 19:22:43 10° 213° (SSW) 3,786 10.0 -16.9°
Maximum altitude 19:30:27 29° 159° (SSE) 2,668 8.5 -17.8°
Enters shadow 19:35:09 20° 121° (ESE) 3,169 8.6 -18.3°
